Find Starlink 3882

NORAD ID: 52475 Int'l Des: 2022-049 Owner: SPXS Country: US Constellation: starlink operational
LEOCIRCULAR

現在のビュー

3D地球を読み込み中...

About Starlink 3882

Starlink 3882 (NORAD 52475) is a starlink constellation satellite (v1.5) launched May 6, 2022 by SPXS of US. It operates in LEO, CIRCULAR orbit with a mass of 297.00 kg.

Starlink 3882について

説明を読み込み中...

次回通過

Passes for default location (London). Set your location on the main map for personalized predictions.

高度履歴

Loading altitude history...

軌道要素

1 52475U 22049AA 26170.14112824 .00004219 00000-0 28294-3 0 9993
2 52475 53.1608 323.7984 0000993 96.4930 263.6174 15.08848204227567
Epoch: Jun 19, 2026 • Age: 7 hours

現在のステータス

高度 541.2 km
速度 7.60 km/s
衛星直下点 30.99°N, 67.31°W
打ち上げ日 May 6, 2022
運用期間 4.1 years
タイプ internet

技術仕様

分類 Payload
質量 297.00 kg
乾燥質量 220.00 kg
総質量 297.00 kg
長さ 0.20 m
直径 2.80 m
スパン 9.00 m
形状 Box + pan
製造者 SPXS
バスタイプ Starlink
フェーズステータス In Orbit
所有者/国 SPXS/US

Most Searched